"2010-12-21 00:00:00",440941,10.58,142.1,4.201,0.761,9.24,101.5982,3.377,4.637,39.32,0,109.8,13.46,4.14,104.1
"2010-12-21 00:00:30",440942,10.57,142.3,3.76,0.822,9.1,101.5948,3.369,4.624,38.91,0,109.8,13.46,4.13,104.3
"2010-12-21 00:01:00",440943,10.56,143.4,3.985,0.881,9.14,101.5824,3.337,4.565,38.78,0,109.8,13.46,4.10,105.4
"2010-12-21 00:01:30",440944,10.4,142.7,1.875,0.722,9.09,101.5618,3.284,4.531,38.79,0,109.8,13.46,4.05,104.7
"2010-12-21 00:02:00",440945,10.52,142.5,3.762,0.795,9.32,101.5609,3.282,4.52,38.73,0,109.8,13.46,4.05,104.5
"2010-12-21 00:02:30",440946,10.68,144.1,4.164,0.775,9.32,101.5442,3.24,4.525,38.63,0,109.8,13.47,4.00,106.1
"2010-12-21 00:03:00",440947,10.9,145.9,4.245,0.669,9.4,101.5273,3.196,4.477,38.68,0,109.8,13.46,3.96,107.9
"2010-12-21 00:03:30",440948,10.92,144.5,2.947,0.667,9.32,101.527,3.196,4.452,38.57,0,109.8,13.47,3.96,106.5
"2010-12-21 00:04:00",440949,10.75,144.6,2.939,0.84,9.25,101.527,3.196,4.423,38.49,0,109.8,13.47,3.96,106.6
"2010-12-21 00:04:30",440950,10.89,143.5,3.663,0.737,9.38,101.5267,3.195,4.427,38.39,0,109.8,13.46,3.96,105.5
"2010-12-21 00:05:00",440951,10.76,143.5,2.058,0.835,9.17,101.5188,3.175,4.39,38.61,0,109.8,13.47,3.94,105.5
"2010-12-21 00:05:30",440952,10.81,143.3,3.361,0.756,9.45,101.5083,3.148,4.386,38.52,0,109.8,13.47,3.91,105.3
"2010-12-21 00:06:00",440953,10.66,141.5,2.968,0.844,9.14,101.4961,3.117,4.361,38.44,0,109.8,13.47,3.88,103.5
"2010-12-21 00:06:30",440954,10.67,142.8,3.18,0.762,9.22,101.493,3.109,4.365,38.46,0,109.8,13.46,3.87,104.8
"2010-12-21 00:07:00",440955,10.42,139.8,3.65,0.831,9.17,101.493,3.109,4.35,38.57,0,109.8,13.46,3.87,101.8
"2010-12-21 00:07:30",440956,10.55,139.1,2.457,0.643,9.28,101.493,3.109,4.339,38.71,0,109.8,13.46,3.87,101.1
"2010-12-21 00:08:00",440957,10.48,138.4,3.506,0.753,9.07,101.4916,3.105,4.329,38.81,0,109.8,13.46,3.87,100.4
"2010-12-21 00:08:30",440958,10.51,138.8,4.169,0.631,9.24,101.4781,3.071,4.326,38.85,0,109.8,13.46,3.83,100.8
"2010-12-21 00:09:00",440959,10.43,136.4,3.982,0.642,9.15,101.4673,3.043,4.294,38.96,0,109.8,13.46,3.81,98.4
"2010-12-21 00:09:30",440960,10.42,137.7,3.376,0.646,9.14,101.4591,3.022,4.294,38.97,0,109.7,13.46,3.78,99.7
"2010-12-21 00:10:00",440961,10.39,139.6,3.989,0.663,9.12,101.4591,3.022,4.283,39,0,109.8,13.46,3.78,101.6
"2010-12-21 00:10:30",440962,10.41,138.9,3.88,0.668,9.12,101.4591,3.022,4.256,39.01,0,109.8,13.46,3.78,100.9
"2010-12-21 00:11:00",440963,10.58,138.1,3.387,0.754,8.9,101.4563,3.015,4.249,38.99,0,109.8,13.46,3.78,100.1
"2010-12-21 00:11:30",440964,10.75,139.3,2.497,0.527,8.86,101.4464,2.99,4.229,38.93,0,109.8,13.47,3.75,101.3
"2010-12-21 00:12:00",440965,10.7,137.8,3.405,0.746,9,101.4365,2.965,4.2,38.94,0,109.8,13.47,3.73,99.8
"2010-12-21 00:12:30",440966,10.45,137.9,2.177,0.822,8.68,101.4272,2.941,4.196,38.98,0,109.8,13.47,3.70,99.9
"2010-12-21 00:13:00",440967,10.63,136.8,3.522,0.752,8.96,101.4252,2.936,4.183,38.99,0,109.8,13.47,3.70,98.8
"2010-12-21 00:13:30",440968,10.65,137.9,3.528,0.667,9.02,101.4252,2.936,4.174,38.99,0,109.8,13.47,3.70,99.9
"2010-12-21 00:14:00",440969,10.5,137.8,2.974,0.829,8.8,101.4246,2.934,4.168,39.06,0,109.8,13.48,3.70,99.8
"2010-12-21 00:14:30",440970,10.42,137.9,2.671,0.759,8.76,101.4102,2.898,4.14,39.09,0,109.8,13.47,3.66,99.9
"2010-12-21 00:15:00",440971,10.58,136.8,3.981,0.663,9.1,101.3992,2.869,4.139,39.11,0,109.8,13.48,3.63,98.8
"2010-12-21 00:15:30",440972,10.56,136.1,3.936,0.643,9.14,101.3921,2.851,4.139,39.16,0,109.8,13.48,3.61,98.1
"2010-12-21 00:16:00",440973,10.39,136.2,3.497,0.744,8.86,101.3921,2.851,4.1,39.18,0,109.8,13.48,3.61,98.2
"2010-12-21 00:16:30",440974,10.48,136.7,3.667,0.761,8.83,101.3915,2.85,4.113,39.17,0,109.8,13.48,3.61,98.7
"2010-12-21 00:17:00",440975,10.47,137.8,2.925,0.833,8.74,101.3921,2.851,4.08,39.15,0,109.8,13.48,3.61,99.8
"2010-12-21 00:17:30",440976,10.59,138.9,1.83,0.74,8.75,101.3932,2.854,4.073,39.17,0,109.8,13.48,3.62,100.9
"2010-12-21 00:18:00",440977,10.59,137.8,3.66,0.762,8.87,101.3935,2.855,4.076,39.16,0,109.8,13.48,3.62,99.8
"2010-12-21 00:18:30",440978,10.46,141.4,5.247,0.747,8.88,101.3924,2.852,4.071,39.24,0,109.8,13.48,3.61,103.4
"2010-12-21 00:19:00",440979,10.46,139.6,2.807,0.818,8.8,101.3938,2.856,4.044,39.22,0,109.8,13.48,3.62,101.6
"2010-12-21 00:19:30",440980,10.52,140,2.877,0.645,8.98,101.3904,2.847,4.053,39.2,0,109.8,13.48,3.61,102.0
"2010-12-21 00:20:00",440981,10.31,138.2,3.635,0.73,8.89,101.3887,2.843,4.051,39.21,0,109.8,13.48,3.60,100.2
"2010-12-21 00:20:30",440982,10.09,138.3,3.203,0.756,8.85,101.3854,2.834,4.055,39.24,0,109.8,13.48,3.60,100.3
"2010-12-21 00:21:00",440983,10.16,138.2,3.63,0.762,9.02,101.3846,2.832,4.057,39.3,0,109.8,13.48,3.59,100.2
"2010-12-21 00:21:30",440984,10.14,141.6,3.499,0.778,8.83,101.3846,2.832,4.044,39.31,0,109.8,13.48,3.59,103.6
"2010-12-21 00:22:00",440985,10.36,141.6,5.26,0.652,9.03,101.3852,2.834,4.042,39.32,0,109.8,13.48,3.60,103.6
"2010-12-21 00:22:30",440986,10.32,139.9,3.827,0.682,9.04,101.3858,2.835,4.047,39.3,0,109.8,13.48,3.60,101.9
"2010-12-21 00:23:00",440987,10.08,137.9,3.787,0.744,8.97,101.3858,2.835,4.034,39.3,0,109.8,13.48,3.60,99.9
"2010-12-21 00:23:30",440988,10.14,139.2,4.024,0.669,8.99,101.3844,2.832,4.027,39.32,0,109.7,13.47,3.59,101.2
"2010-12-21 00:24:00",440989,10.1,141.9,3.777,0.759,8.8,101.3813,2.824,4.031,39.33,0,109.7,13.47,3.59,103.9
"2010-12-21 00:24:30",440990,9.9,138.4,3.603,0.886,8.8,101.3824,2.827,4.027,39.37,0,109.7,13.47,3.59,100.4
"2010-12-21 00:25:00",440991,10.17,139.6,3.043,0.846,8.73,101.3799,2.82,4.017,39.37,0,109.7,13.47,3.58,101.6
"2010-12-21 00:25:30",440992,10.22,141.2,2.18,0.801,8.75,101.3791,2.818,4.004,39.37,0,109.7,13.47,3.58,103.2
"2010-12-21 00:26:00",440993,10.34,143.6,3.37,0.77,8.69,101.3794,2.819,4.019,39.39,0,109.7,13.47,3.58,105.6
"2010-12-21 00:26:30",440994,10.56,142.3,4.247,0.832,9.04,101.3788,2.817,4.021,39.39,0,109.7,13.47,3.58,104.3
"2010-12-21 00:27:00",440995,10.39,143.6,4.019,0.802,8.99,101.3822,2.826,4.023,39.43,0,109.7,13.48,3.59,105.6
"2010-12-21 00:27:30",440996,10.33,144.6,2.876,0.797,9,101.3811,2.823,4.016,39.43,0,109.7,13.48,3.59,106.6
"2010-12-21 00:28:00",440997,10.53,144.5,4.379,0.641,9.17,101.382,2.825,4.022,39.45,0,109.7,13.48,3.59,106.5
"2010-12-21 00:28:30",440998,10.61,146.2,4.261,0.706,9.31,101.3856,2.835,4.01,39.48,0,109.7,13.48,3.60,108.2
"2010-12-21 00:29:00",440999,10.47,145.7,3.411,0.81,9.02,101.3905,2.847,4.03,39.49,0,109.7,13.48,3.61,107.7
"2010-12-21 00:29:30",441000,10.19,149,3.924,0.753,9.12,101.391,2.849,4.02,39.5,0,109.7,13.48,3.61,111.0
"2010-12-21 00:30:00",441001,9.99,149.9,2.852,0.792,8.98,101.3973,2.865,4.009,39.54,0,109.7,13.48,3.63,111.9
"2010-12-21 00:30:30",441002,10.39,152.2,4.311,0.721,9.15,101.399,2.869,4.046,39.53,0,109.7,13.48,3.63,114.2
"2010-12-21 00:31:00",441003,9.96,154.3,4.838,0.745,9.03,101.3995,2.87,4.035,39.56,0,109.7,13.48,3.63,116.3
"2010-12-21 00:31:30",441004,10.15,149,4.305,0.606,8.97,101.3989,2.869,4.033,39.55,0,109.7,13.48,3.63,111.0
"2010-12-21 00:32:00",441005,9.82,154.4,4.211,0.688,8.83,101.3959,2.861,4.02,39.58,0,109.7,13.48,3.62,116.4
"2010-12-21 00:32:30",441006,9.9,150.7,3.93,0.691,8.77,101.3936,2.855,4.041,39.62,0,109.7,13.48,3.62,112.7
"2010-12-21 00:33:00",441007,9.55,154.1,2.212,0.864,8.5,101.3902,2.847,4.013,39.69,0,109.7,13.48,3.61,116.1
"2010-12-21 00:33:30",441008,9.81,154.4,3.76,0.604,8.73,101.3877,2.84,4.02,39.72,0,109.7,13.48,3.60,116.4
"2010-12-21 00:34:00",441009,9.57,154.2,3.517,0.764,8.59,101.3885,2.842,4.036,39.68,0,109.7,13.48,3.60,116.2
"2010-12-21 00:34:30",441010,9.49,152.8,4.074,0.622,8.71,101.3868,2.838,4.019,39.56,0,109.7,13.48,3.60,114.8
"2010-12-21 00:35:00",441011,9.24,150.3,3.884,0.662,8.65,101.3888,2.843,4.037,39.53,0,109.7,13.48,3.60,112.3
"2010-12-21 00:35:30",441012,9.29,150.2,2.779,0.648,8.56,101.3894,2.845,4.019,39.5,0,109.7,13.49,3.61,112.2
"2010-12-21 00:36:00",441013,9.12,148.6,3.458,0.751,8.27,101.3874,2.839,4.021,39.53,0,109.7,13.49,3.60,110.6
"2010-12-21 00:36:30",441014,9,148.9,2.944,0.841,8.23,101.3888,2.843,4.011,39.51,0,109.7,13.49,3.60,110.9
"2010-12-21 00:37:00",441015,9.02,148.5,3.488,0.835,8.29,101.3888,2.843,4.006,39.56,0,109.7,13.49,3.60,110.5
"2010-12-21 00:37:30",441016,9.06,148.1,3.273,0.531,8.52,101.3798,2.82,4.013,39.6,0,109.7,13.49,3.58,110.1
"2010-12-21 00:38:00",441017,8.92,147.9,3.781,0.677,8.46,101.3744,2.806,3.992,39.64,0,109.7,13.49,3.57,109.9
"2010-12-21 00:38:30",441018,8.91,148,3.557,0.753,8.22,101.3722,2.801,3.997,39.69,0,109.7,13.48,3.56,110.0
"2010-12-21 00:39:00",441019,8.83,147.7,2.306,0.828,8.2,101.369,2.793,3.957,39.78,0,109.7,13.48,3.55,109.7
"2010-12-21 00:39:30",441020,8.79,145.6,4.02,0.633,8.49,101.3691,2.793,3.992,39.83,0,109.7,13.48,3.55,107.6
"2010-12-21 00:40:00",441021,8.66,145.3,3.547,0.745,8.19,101.3677,2.789,3.979,39.9,0,109.7,13.48,3.55,107.3
"2010-12-21 00:40:30",441022,8.62,144.7,3.673,0.83,8.28,101.3685,2.791,3.991,39.91,0,109.7,13.48,3.55,106.7
"2010-12-21 00:41:00",441023,8.78,144.4,3.169,0.833,8.34,101.3722,2.801,3.974,40.08,0,109.7,13.48,3.56,106.4
"2010-12-21 00:41:30",441024,9.01,145.9,3.115,0.637,8.69,101.3781,2.816,3.969,40.1,0,109.7,13.48,3.58,107.9
"2010-12-21 00:42:00",441025,9.04,145.2,3.355,0.758,8.56,101.3875,2.84,4.001,40.1,0,109.7,13.48,3.60,107.2
"2010-12-21 00:42:30",441026,9.04,143.9,3.591,0.744,8.52,101.3909,2.848,3.987,40.08,0,109.7,13.48,3.61,105.9
"2010-12-21 00:43:00",441027,9.18,143.6,2.901,0.834,8.42,101.3917,2.85,3.995,40.08,0,109.7,13.48,3.61,105.6
"2010-12-21 00:43:30",441028,9.19,143.6,2.781,0.742,8.46,101.3917,2.85,3.986,39.9,0,109.7,13.48,3.61,105.6
"2010-12-21 00:44:00",441029,9.09,144.1,2.801,0.849,8.42,101.3917,2.85,4.006,39.66,0,109.7,13.48,3.61,106.1
"2010-12-21 00:44:30",441030,9.43,144.4,3.442,0.801,8.45,101.3917,2.85,4.007,39.21,0,109.7,13.49,3.61,106.4
"2010-12-21 00:45:00",441031,9.58,144,2.144,0.84,8.36,101.3917,2.85,3.98,39.01,0,109.7,13.49,3.61,106.0
"2010-12-21 00:45:30",441032,9.71,143.8,3.229,0.636,8.74,101.3917,2.85,4,38.98,0,109.7,13.49,3.61,105.8
"2010-12-21 00:46:00",441033,9.55,142.7,2.932,0.828,8.59,101.3917,2.85,4.004,39.1,0,109.7,13.49,3.61,104.7
"2010-12-21 00:46:30",441034,9.54,142.7,2.842,0.799,8.65,101.3917,2.85,4.013,39.12,0,109.7,13.49,3.61,104.7
"2010-12-21 00:47:00",441035,9.49,142.2,3.408,0.752,8.77,101.3917,2.85,4.023,39.15,0,109.7,13.49,3.61,104.2
"2010-12-21 00:47:30",441036,9.46,142.9,1.947,0.734,8.78,101.3917,2.85,3.999,39.1,0,109.7,13.49,3.61,104.9
"2010-12-21 00:48:00",441037,9.34,142.4,3.462,0.755,8.79,101.3917,2.85,3.992,39.02,0,109.7,13.49,3.61,104.4
"2010-12-21 00:48:30",441038,9.31,142.6,2.825,0.822,8.64,101.3917,2.85,4.012,39.08,0,109.7,13.49,3.61,104.6
"2010-12-21 00:49:00",441039,9.15,143.5,2.214,0.832,8.41,101.3917,2.85,3.995,39.1,0,109.7,13.49,3.61,105.5
"2010-12-21 00:49:30",441040,9.24,142.9,3.441,0.633,8.72,101.3917,2.85,4.013,39.08,0,109.7,13.49,3.61,104.9
"2010-12-21 00:50:00",441041,9.2,143.9,2.07,0.835,8.43,101.3917,2.85,4.002,39.05,0,109.7,13.49,3.61,105.9
"2010-12-21 00:50:30",441042,9.32,143.8,2.875,0.838,8.51,101.39,2.846,4.017,38.98,0,109.7,13.49,3.61,105.8
"2010-12-21 00:51:00",441043,9.43,142.4,3.213,0.828,8.43,101.3895,2.845,3.984,38.97,0,109.7,13.49,3.61,104.4
"2010-12-21 00:51:30",441044,9.56,142.3,3.455,0.666,8.52,101.3804,2.821,3.994,38.99,0,109.7,13.49,3.58,104.3
"2010-12-21 00:52:00",441045,9.51,140.7,3.164,0.832,8.4,101.3657,2.784,3.997,39.05,0,109.7,13.49,3.55,102.7
"2010-12-21 00:52:30",441046,9.84,140,4.059,0.693,8.56,101.3578,2.764,3.974,39.01,0,109.7,13.49,3.53,102.0
"2010-12-21 00:53:00",441047,9.66,139.1,5.142,0.672,8.56,101.3578,2.764,3.956,39.12,0,109.7,13.49,3.53,101.1
"2010-12-21 00:53:30",441048,9.52,139.7,4.328,0.837,8.34,101.351,2.746,3.944,39.06,0,109.7,13.49,3.51,101.7
"2010-12-21 00:54:00",441049,9.91,139.8,4.706,0.96,8.12,101.3244,2.679,3.926,38.49,0,109.7,13.49,3.44,101.8
"2010-12-21 00:54:30",441050,9.95,143.7,4.047,0.845,8.04,101.3074,2.635,3.901,37.94,0,109.7,13.49,3.40,105.7
"2010-12-21 00:55:00",441051,9.72,146,3.581,0.918,7.975,101.2887,2.588,3.854,38.74,0,109.7,13.49,3.35,108.0
"2010-12-21 00:55:30",441052,9.82,148.8,3.375,0.758,8.01,101.2585,2.51,3.793,38.52,0,109.7,13.49,3.27,110.8
"2010-12-21 00:56:00",441053,9.82,146.4,3.742,0.9,8.01,101.2361,2.453,3.734,37.82,0,109.7,13.49,3.21,108.4
"2010-12-21 00:56:30",441054,10.2,144.7,3.912,0.78,8.12,101.2183,2.408,3.721,37.24,0,109.7,13.48,3.17,106.7
"2010-12-21 00:57:00",441055,10.07,147.9,3.777,0.856,8.11,101.1889,2.333,3.648,37.51,0,109.7,13.49,3.09,109.9
"2010-12-21 00:57:30",441056,9.91,153.5,2.188,0.758,8.26,101.1773,2.303,3.595,38.51,0,109.7,13.49,3.06,115.5
"2010-12-21 00:58:00",441057,10.07,153.8,3.604,0.784,8.11,101.1541,2.244,3.543,39.09,0,109.7,13.48,3.00,115.8
"2010-12-21 00:58:30",441058,10.4,151,4.262,0.789,8.12,101.1357,2.197,3.523,39.01,0,109.7,13.49,2.96,113.0
"2010-12-21 00:59:00",441059,10.11,149.6,3.42,0.766,7.967,101.1202,2.157,3.472,37.61,0,109.7,13.48,2.92,111.6
"2010-12-21 00:59:30",441060,9.97,150,3.417,0.647,8.16,101.0916,2.084,3.425,37.43,0,109.7,13.48,2.84,112.0
"2010-12-21 01:00:00",441061,9.71,152.1,4.58,0.786,8.03,101.0803,2.056,3.385,38.13,0,109.7,13.49,2.81,114.1
"2010-12-21 01:00:30",441062,9.66,147.3,4.867,0.752,8.09,101.0531,1.986,3.356,36.3,0,109.7,13.49,2.75,109.3
"2010-12-21 01:01:00",441063,9.31,146.7,3.569,0.762,7.996,101.0477,1.973,3.288,34.21,0,109.7,13.49,2.73,108.7
"2010-12-21 01:01:30",441064,9.28,143.7,3.278,0.8,7.861,101.0209,1.904,3.245,33.86,0,109.7,13.49,2.66,105.7
"2010-12-21 01:02:00",441065,9.87,137.1,4.14,0.706,7.932,101.0183,1.898,3.24,34.82,0,109.7,13.49,2.66,99.1
"2010-12-21 01:02:30",441066,9.55,138.2,4.176,0.656,7.98,101.0107,1.878,3.218,35.13,0,109.7,13.49,2.64,100.2
"2010-12-21 01:03:00",441067,9.6,139.5,4.518,0.68,7.968,100.9906,1.827,3.176,34.75,0,109.7,13.5,2.59,101.5
"2010-12-21 01:03:30",441068,9.89,136.7,3.841,0.531,7.971,100.9844,1.811,3.13,35.21,0,109.7,13.5,2.57,98.7
"2010-12-21 01:04:00",441069,9.81,137,3.999,0.677,7.928,100.9844,1.811,3.127,35.13,0,109.7,13.5,2.57,99.0
"2010-12-21 01:04:30",441070,9.8,138.9,3.508,0.741,7.761,100.9717,1.778,3.093,34.77,0,109.7,13.49,2.54,100.9
"2010-12-21 01:05:00",441071,9.81,138.1,3.559,0.826,7.816,100.9538,1.733,3.042,35.4,0,109.7,13.5,2.49,100.1
"2010-12-21 01:05:30",441072,10.01,138.2,1.879,0.736,7.652,100.9504,1.724,3.005,35.21,0,109.7,13.5,2.48,100.2
"2010-12-21 01:06:00",441073,9.97,138.5,3.357,0.746,7.96,100.9504,1.724,2.983,35.35,0,109.7,13.5,2.48,100.5
"2010-12-21 01:06:30",441074,10.03,139.8,3.293,0.746,7.961,100.9504,1.724,2.984,35.06,0,109.7,13.5,2.48,101.8
"2010-12-21 01:07:00",441075,9.93,140.7,3.226,0.824,7.896,100.9419,1.703,2.95,35.04,0,109.7,13.5,2.46,102.7
"2010-12-21 01:07:30",441076,10,141.1,2.712,0.625,8.02,100.9304,1.673,2.934,35.25,0,109.7,13.5,2.43,103.1
"2010-12-21 01:08:00",441077,9.86,141.3,3.397,0.74,7.913,100.925,1.659,2.942,35.74,0,109.7,13.5,2.42,103.3
"2010-12-21 01:08:30",441078,9.82,141.9,3.265,0.748,7.935,100.9233,1.655,2.916,36,0,109.7,13.5,2.41,103.9
"2010-12-21 01:09:00",441079,9.8,142.1,2.829,0.814,7.807,100.9219,1.651,2.904,35.74,0,109.7,13.5,2.41,104.1
"2010-12-21 01:09:30",441080,10.07,141.3,3.415,0.484,8.12,100.9196,1.646,2.911,35.46,0,109.7,13.5,2.40,103.3
"2010-12-21 01:10:00",441081,9.98,141.3,3.877,0.648,8.06,100.9196,1.646,2.904,35.56,0,109.7,13.5,2.40,103.3
"2010-12-21 01:10:30",441082,10.11,141.5,3.839,0.657,8.2,100.9173,1.64,2.904,35.65,0,109.7,13.5,2.40,103.5
"2010-12-21 01:11:00",441083,10.26,141.4,3.936,0.646,8.25,100.9173,1.64,2.904,35.55,0,109.7,13.5,2.40,103.4
"2010-12-21 01:11:30",441084,10.44,141.7,3.746,0.516,8.41,100.9168,1.638,2.888,35.27,0,109.7,13.49,2.40,103.7
"2010-12-21 01:12:00",441085,10.38,141.6,3.896,0.76,8.18,100.9171,1.639,2.894,35.33,0,109.7,13.5,2.40,103.6
"2010-12-21 01:12:30",441086,10.28,141.9,2.978,0.84,8.04,100.9174,1.64,2.877,35.56,0,109.7,13.49,2.40,103.9
"2010-12-21 01:13:00",441087,10.32,141.9,3.366,0.734,8.24,100.9174,1.64,2.879,35.49,0,109.7,13.49,2.40,103.9
"2010-12-21 01:13:30",441088,10.51,142.6,3.24,0.637,8.45,100.9191,1.644,2.872,35.17,0,109.7,13.5,2.40,104.6
"2010-12-21 01:14:00",441089,10.26,143.5,2.231,0.826,7.997,100.9205,1.648,2.862,35.33,0,109.7,13.49,2.41,105.5
"2010-12-21 01:14:30",441090,10.19,144,3.005,0.823,8.08,100.9199,1.646,2.872,35.57,0,109.7,13.49,2.40,106.0
"2010-12-21 01:15:00",441091,10.33,144.5,3.832,0.753,8.28,100.9239,1.657,2.878,35.04,0,109.7,13.49,2.41,106.5
"2010-12-21 01:15:30",441092,10.41,144.8,3.291,0.729,8.29,100.9245,1.658,2.858,33.63,0,109.7,13.5,2.42,106.8
"2010-12-21 01:16:00",441093,10.55,143.3,3.777,0.634,8.44,100.9256,1.661,2.877,33.76,0,109.7,13.5,2.42,105.3
"2010-12-21 01:16:30",441094,10.48,142.7,3.96,0.641,8.42,100.9268,1.664,2.865,34.41,0,109.7,13.5,2.42,104.7
"2010-12-21 01:17:00",441095,10.42,142.2,3.881,0.629,8.44,100.9262,1.663,2.872,34.68,0,109.7,13.51,2.42,104.2
"2010-12-21 01:17:30",441096,10.49,142.6,3.334,0.516,8.59,100.9299,1.672,2.87,34.62,0,109.7,13.51,2.43,104.6
"2010-12-21 01:18:00",441097,10.39,142.2,3.853,0.651,8.35,100.9313,1.676,2.867,34.49,0,109.7,13.51,2.43,104.2
"2010-12-21 01:18:30",441098,10.34,141.3,3.884,0.664,8.35,100.9308,1.674,2.879,34.44,0,109.7,13.51,2.43,103.3
"2010-12-21 01:19:00",441099,10.47,140.4,3.856,0.662,8.05,100.9226,1.653,2.856,34.67,0,109.7,13.51,2.41,102.4
"2010-12-21 01:19:30",441100,10.56,140.7,3.863,0.639,8.06,100.9155,1.635,2.852,34.7,0,109.7,13.51,2.39,102.7
"2010-12-21 01:20:00",441101,10.6,139.9,3.045,0.826,8.14,100.9042,1.606,2.833,34.61,0,109.7,13.51,2.36,101.9
"2010-12-21 01:20:30",441102,10.36,140.2,2.872,0.817,7.802,100.902,1.601,2.827,34.88,0,109.7,13.51,2.36,102.2
"2010-12-21 01:21:00",441103,10.41,141.2,2.94,0.741,7.788,100.9008,1.598,2.792,35.19,0,109.7,13.51,2.36,103.2
"2010-12-21 01:21:30",441104,10.42,142,3.293,0.628,8.39,100.9017,1.6,2.814,35.3,0,109.7,13.51,2.36,104.0
"2010-12-21 01:22:00",441105,10.29,142.2,3.276,0.745,8.27,100.9014,1.599,2.813,35.43,0,109.7,13.51,2.36,104.2
"2010-12-21 01:22:30",441106,10.31,141.8,3.968,0.644,8.33,100.9011,1.598,2.803,35.32,0,109.7,13.51,2.36,103.8
"2010-12-21 01:23:00",441107,10.12,142.7,4.02,0.663,8.17,100.902,1.601,2.799,35.22,0,109.7,13.51,2.36,104.7
"2010-12-21 01:23:30",441108,10.22,143.4,3.393,0.63,8.23,100.9014,1.599,2.796,35.48,0,109.7,13.51,2.36,105.4
"2010-12-21 01:24:00",441109,10.16,144,3.991,0.647,8.28,100.9031,1.604,2.798,35.36,0,109.7,13.51,2.36,106.0
"2010-12-21 01:24:30",441110,10.14,145,3.989,0.638,8.31,100.9017,1.6,2.806,35,0,109.7,13.51,2.36,107.0
"2010-12-21 01:25:00",441111,10.09,145.2,3.437,0.751,8.34,100.9025,1.602,2.794,35.13,0,109.7,13.51,2.36,107.2
"2010-12-21 01:25:30",441112,10.13,145.5,3.479,0.627,8.35,100.9031,1.604,2.819,35.25,0,109.7,13.51,2.36,107.5
"2010-12-21 01:26:00",441113,10.03,144.6,3.962,0.746,8.25,100.9057,1.61,2.811,35.72,0,109.7,13.51,2.37,106.6
"2010-12-21 01:26:30",441114,9.91,143.7,3.464,0.755,8.13,100.9062,1.612,2.826,36.15,0,109.7,13.51,2.37,105.7
"2010-12-21 01:27:00",441115,9.87,143.8,2.955,0.816,8.06,100.9077,1.615,2.822,36.28,0,109.7,13.51,2.37,105.8
"2010-12-21 01:27:30",441116,10.02,144.5,2.66,0.64,8.26,100.9051,1.609,2.821,36.11,0,109.7,13.51,2.37,106.5
"2010-12-21 01:28:00",441117,9.88,142.7,3.602,0.734,8.01,100.9065,1.612,2.815,36.23,0,109.7,13.51,2.37,104.7
"2010-12-21 01:28:30",441118,9.81,142,3.427,0.744,7.827,100.9091,1.619,2.835,36.44,0,109.7,13.51,2.38,104.0
"2010-12-21 01:29:00",441119,9.79,141.7,3.376,0.745,7.673,100.91,1.621,2.818,36.38,0,109.7,13.51,2.38,103.7
"2010-12-21 01:29:30",441120,9.77,142.2,2.693,0.723,7.928,100.9097,1.62,2.798,36.49,0,109.7,13.51,2.38,104.2
"2010-12-21 01:30:00",441121,9.57,142,2.873,0.749,7.938,100.8998,1.595,2.776,36.66,0,109.7,13.51,2.35,104.0
"2010-12-21 01:30:30",441122,9.49,142.7,2.894,0.749,7.689,100.8907,1.572,2.771,36.86,0,109.7,13.51,2.33,104.7
"2010-12-21 01:31:00",441123,9.49,143.7,3.258,0.745,7.852,100.8862,1.56,2.768,36.84,0,109.7,13.51,2.32,105.7
"2010-12-21 01:31:30",441124,9.56,144.6,2.694,0.724,7.732,100.8774,1.538,2.767,36.9,0,109.7,13.51,2.30,106.6
"2010-12-21 01:32:00",441125,9.61,144.3,3.847,0.641,7.973,100.8757,1.534,2.756,36.95,0,109.7,13.51,2.29,106.3
"2010-12-21 01:32:30",441126,9.54,145.2,3.915,0.632,8.17,100.8757,1.534,2.75,37.16,0,109.7,13.51,2.29,107.2
"2010-12-21 01:33:00",441127,9.46,145.4,3.852,0.657,8.2,100.8757,1.534,2.721,37.28,0,109.7,13.51,2.29,107.4
"2010-12-21 01:33:30",441128,9.58,146.3,3.402,0.514,8.17,100.8751,1.532,2.721,37.29,0,109.7,13.51,2.29,108.3
"2010-12-21 01:34:00",441129,9.53,146.3,3.883,0.647,8.03,100.8757,1.534,2.719,37.13,0,109.7,13.52,2.29,108.3
"2010-12-21 01:34:30",441130,9.49,145.4,3.86,0.654,8.14,100.8754,1.533,2.731,37.13,0,109.7,13.51,2.29,107.4
"2010-12-21 01:35:00",441131,9.5,146.3,3.886,0.652,7.994,100.876,1.534,2.704,37.25,0,109.7,13.52,2.29,108.3
"2010-12-21 01:35:30",441132,9.52,145.8,3.333,0.662,8.07,100.8749,1.532,2.705,37.3,0,109.7,13.52,2.29,107.8
"2010-12-21 01:36:00",441133,9.38,145.9,2.975,0.823,7.894,100.8675,1.513,2.708,37.41,0,109.7,13.52,2.27,107.9
"2010-12-21 01:36:30",441134,9.54,146,2.667,0.75,7.713,100.8596,1.493,2.691,37.39,0,109.7,13.52,2.25,108.0
"2010-12-21 01:37:00",441135,9.56,146.1,3.395,0.747,7.93,100.8553,1.482,2.68,37.43,0,109.7,13.52,2.24,108.1
"2010-12-21 01:37:30",441136,9.74,145.8,3.249,0.63,7.966,100.8511,1.471,2.692,37.49,0,109.7,13.52,2.23,107.8
"2010-12-21 01:38:00",441137,9.62,145.5,2.781,0.758,7.785,100.8446,1.454,2.667,37.48,0,109.7,13.52,2.21,107.5
"2010-12-21 01:38:30",441138,9.52,145.8,2.843,0.823,7.812,100.844,1.453,2.663,37.72,0,109.7,13.52,2.21,107.8
"2010-12-21 01:39:00",441139,9.54,145.5,2.869,0.827,7.743,100.8443,1.454,2.671,37.85,0,109.7,13.52,2.21,107.5
"2010-12-21 01:39:30",441140,9.62,145.7,2.896,0.739,7.877,100.8443,1.454,2.658,37.89,0,109.7,13.52,2.21,107.7
"2010-12-21 01:40:00",441141,9.54,145.6,3.332,0.825,7.827,100.8449,1.455,2.675,37.87,0,109.7,13.52,2.21,107.6
"2010-12-21 01:40:30",441142,9.66,144.7,2.86,0.823,7.609,100.846,1.458,2.66,37.71,0,109.7,13.52,2.22,106.7
"2010-12-21 01:41:00",441143,9.8,144.2,3.844,0.649,7.915,100.8475,1.462,2.661,37.59,0,109.7,13.52,2.22,106.2
"2010-12-21 01:41:30",441144,9.97,144.1,3.3,0.524,8.12,100.8489,1.465,2.657,37.51,0,109.6,13.52,2.22,106.1
"2010-12-21 01:42:00",441145,9.85,144,3.903,0.653,8.04,100.848,1.463,2.653,37.5,0,109.7,13.52,2.22,106.0
"2010-12-21 01:42:30",441146,9.79,144.1,3.947,0.743,8.01,100.8489,1.465,2.667,37.37,0,109.6,13.52,2.22,106.1
"2010-12-21 01:43:00",441147,9.72,144.4,3.53,0.83,7.888,100.8489,1.465,2.654,37.29,0,109.6,13.52,2.22,106.4
"2010-12-21 01:43:30",441148,9.77,145.4,2.722,0.733,7.835,100.8486,1.465,2.635,37.15,0,109.6,13.52,2.22,107.4
"2010-12-21 01:44:00",441149,9.59,146.3,2.019,0.818,7.745,100.8489,1.465,2.631,37.68,0,109.6,13.52,2.22,108.3
"2010-12-21 01:44:30",441150,9.58,146.7,3.431,0.748,7.997,100.8489,1.465,2.653,37.89,0,109.6,13.51,2.22,108.7
"2010-12-21 01:45:00",441151,9.53,146.6,3.628,0.818,7.896,100.8489,1.465,2.64,37.91,0,109.6,13.51,2.22,108.6
"2010-12-21 01:45:30",441152,9.67,148,1.772,0.722,7.915,100.8489,1.465,2.628,38.07,0,109.6,13.51,2.22,110.0
"2010-12-21 01:46:00",441153,9.61,148.5,3.377,0.748,7.992,100.8489,1.465,2.636,37.8,0,109.6,13.51,2.22,110.5
"2010-12-21 01:46:30",441154,9.49,149.7,3.253,0.737,8.11,100.8489,1.465,2.669,37.84,0,109.6,13.51,2.22,111.7
"2010-12-21 01:47:00",441155,9.31,149,3.862,0.66,8.12,100.8489,1.465,2.666,38.49,0,109.6,13.51,2.22,111.0
"2010-12-21 01:47:30",441156,9.35,151.4,2.79,0.626,8.07,100.8489,1.465,2.645,38.85,0,109.6,13.51,2.22,113.4
"2010-12-21 01:48:00",441157,9.1,151.8,2.856,0.821,7.829,100.8492,1.466,2.654,38.88,0,109.6,13.51,2.22,113.8
"2010-12-21 01:48:30",441158,9,151.4,3.389,0.742,7.8,100.8543,1.479,2.688,38.9,0,109.6,13.52,2.24,113.4
"2010-12-21 01:49:00",441159,8.84,151.1,3.569,0.816,7.656,100.8645,1.505,2.677,38.95,0,109.6,13.52,2.26,113.1
"2010-12-21 01:49:30",441160,8.82,151.6,1.951,0.734,7.619,100.8735,1.528,2.67,39.02,0,109.6,13.52,2.29,113.6
"2010-12-21 01:50:00",441161,8.77,151.1,3.497,0.747,7.677,100.8803,1.545,2.697,38.84,0,109.6,13.52,2.30,113.1